Starlink 32165

operational
NORAD ID: 60599 Int'l Des: 2024-150 Owner: SPXS Country: US Constellation: starlink
LEOCIRCULAR

Über Starlink 32165

Beschreibung wird geladen...

Live-Position

3D-Globus wird geladen...

Nächste Überflüge

Höhenverlauf

Altitude vs Time

uPlot chart will show altitude changes over time

Zweizeiliger Elementsatz

1 60599U 24150S 25353.13091866 .00000851 00000-0 40850-4 0 9998
2 60599 53.1629 321.4851 0001302 79.7444 280.3703 15.30195516 75700
Epoch: 19. Dez. 2025 • Age: 12 hours

Aktueller Status

Höhe 484.3 km
Geschwindigkeit 7.62 km/s
Subsatellitenpunkt -28.66°S, 26.26°W
Startdatum 20. Aug. 2024
Alter 1.3 years
Typ internet

Technische Details

Klassifizierung Payload
Masse 730.00 kg
Trockenmasse 700.00 kg
Gesamtmasse 730.00 kg
Länge 0.30 m
Durchmesser 4.10 m
Spannweite 29.00 m
Form Box + pan
Hersteller SPXS
Bus-Typ Starlink V2M
Phasenstatus In Orbit
Besitzer/Staat SPXS/US

Große Konstellationen

Loading constellations...